INMARSAT 3-F5

Last updated on Wed Sep 17 2025 00:02:45 GMT+0000 (Coordinated Universal Time)

1 25153U 98006B 25259.35881494 -.00000306 00000+0 00000+0 0 9992 2 25153 9.0772 55.9114 0004846 131.9094 242.8875 1.00268521101156
UTC large
Height (km)
Speed (km/s)
/
Latitude / Longitude
Inclination (degrees)
Orbital Period (minutes)
Azimuth
Elevation
Range (km)
Doppler Factor

Next 0 passes for location: London (51.5072 / 0.1276)

Sorry there are no passes over London.